Showing default

CAPELLA-14 (ACADIA), 59444

Orbit data source: Space-Track

CAPELLA-14 (ACADIA), 59444 is a payload satellite owned by Capella Space (US) in LEO that was launched on Sun, 07 Apr 2024 UTC via an FALCON 9 launch vehicle from the Air Force Eastern Test Range (AFETR). Payload-class satellites include a variety of spacecraft equipped with specific instruments for various scientific and technological missions. These include communications satellites like Starlink; space stations such as the ISS; scientific satellites like the Hubble; Earth observation satellites from companies like Planet Labs, Umbra, and HawkEye 360; GPS; miniature CubeSats for education and research; and military/defense satellites.

Loading next visibility...
Identifier
59444, 2024-066C
Orbit
LEO
Country
Flag of USUS
Related business
Manufacturer
Capella Space
Mission
Operational Commercial Radar Imaging
Bus & Motor
ACADIA, Unknown motor
Mass
180 kg wet, ~150 kg dry
Launch date (UTC)
2024-04-07 (2 years ago)
Launch vehicle
FALCON 9
Launch site
Air Force Eastern Test Range (AFETR)
Object type
Payload
Rocket body
Debris
Shape & HBR
Box + 2 Pan + 1 Dish + 1 Rod, 1.8 m
Radar Cross Section
0.463 m², Large (>1 m²)

Expand to show TLE details & history
Last TLE update: 3 days ago

TLE from 3 days ago
0 CAPELLA-14 (ACADIA)
1 59444U 24066C   26170.69350519  .00011922  00000-0  70495-3 0  9991
2 59444  45.6020 241.8694 0000795 201.1652 158.9201 15.11597110112862
Epoch: 2026-06-19T16:38Z
TLE epoch observation values (Epoch: 2026-06-19T16:38:38.848Z)
Latitude
-0.00003°
Longitude
84.28868°
Altitude
531.907 km
Speed
7.598 km/s
True Right ascension
16h 07m 28s
True Declination
0° 00' 00"
Sunlit
Object was in full shadow at epoch
Visualization orbit readout
Latitude
Unknown
Longitude
Unknown
Altitude
Unknown
Speed
Unknown
Apparent Right ascension
Unknown
Apparent Declination
Unknown
Sunlit
N/A
Visualization observer readout
Local Sidereal Time
21:48:33
Azimuth
Unknown
Elevation
Unknown
Doppler factor
Unknown
Orbital elements
Apogee altitude
533.376 km
Perigee altitude
532.277 km
Semi-major axis
6,910.963 km
Eccentricity
0.00008
Inclination
45.602°
RAAN
241.8694°
Arg. of periapsis
201.1652°
True anomaly
158.92338°
Mean anomaly
158.9201°
Eccentric anomaly
158.92174°
Mean motion
3.77777 °/min
Orbital period
95.29 mins
BSTAR
0.00070495
Loading maneuver chart data...
Computing Atmospheric mass density...
Loading historical data...
Loading historical data...
Loading historical data...
Loading historical data...
Loading historical data...
Loading historical data...
Loading historical data...

Documentation

Showing up to 5 results
|